Location: Chervonnoye
(48.6000°N, 34.4000°E)
Time: 17:28:59
(UTC+00:00)

X-37B - Pass Details

Date: 29 September 2021
Orbit: 385 x 389 km, 45.0° (Epoch: 13 October)

Event Time Altitude Azimuth Distance (km) Brightness Sun altitude
Exits shadow 03:02:44 - 261° (W) 1,486 2.8 -6.8°
Reaches altitude 10° 03:02:55 10° 260° (W) 1,414 2.7 -6.8°
Maximum altitude 03:05:49 32° 194° (SSW) 690 1.7 -6.3°
Drops below altitude 10° 03:08:42 10° 129° (SE) 1,413 4.2 -5.8°
Sets 03:10:53 0° 119° (ESE) 2,266 5.6 -5.5°
